Satellite: NOAA-12 Catalog number: 21263 Epoch time: 13087.48056007 Element set: 769 Inclination: 098.7040 deg RA of node: 113.4810 deg Eccentricity: 0.0014965 Arg of perigee: 095.9818 deg Mean anomaly: 040.4942 deg Mean motion: 14.25552960 rev/day Decay rate: -1.3e-07 rev/day^2 Epoch rev: 13705 Checksum: 293
Satellite: MET-3/5 Catalog number: 21655 Epoch time: 13087.11657706 Element set: 652 Inclination: 082.5552 deg RA of node: 311.5852 deg Eccentricity: 0.0012696 Arg of perigee: 336.8724 deg Mean anomaly: 023.1825 deg Mean motion: 13.17041314 rev/day Decay rate: 3.69e-06 rev/day^2 Epoch rev: 3926 Checksum: 295
Satellite: MET-2/21 Catalog number: 22782 Epoch time: 13086.79026061 Element set: 698 Inclination: 082.5512 deg RA of node: 167.5008 deg Eccentricity: 0.0023599 Arg of perigee: 079.9006 deg Mean anomaly: 068.6877 deg Mean motion: 13.83702770 rev/day Decay rate: -1.0e-08 rev/day^2 Epoch rev: 98838 Checksum: 337
Satellite: OKEAN-4 Catalog number: 23317 Epoch time: 13087.51287009 Element set: 176 Inclination: 082.5373 deg RA of node: 125.2960 deg Eccentricity: 0.0022836 Arg of perigee: 131.1132 deg Mean anomaly: 325.2066 deg Mean motion: 14.84311425 rev/day Decay rate: 6.09e-06 rev/day^2 Epoch rev: 99697 Checksum: 293
Satellite: NOAA-14 Catalog number: 23455 Epoch time: 13087.47880586 Element set: 253 Inclination: 098.8038 deg RA of node: 173.1349 deg Eccentricity: 0.0009012 Arg of perigee: 221.6895 deg Mean anomaly: 243.7773 deg Mean motion: 14.13899110 rev/day Decay rate: -5.8e-07 rev/day^2 Epoch rev: 94096 Checksum: 331
Satellite: NOAA-15 Catalog number: 25338 Epoch time: 13087.70181757 Element set: 672 Inclination: 098.7207 deg RA of node: 078.3656 deg Eccentricity: 0.0010534 Arg of perigee: 008.5586 deg Mean anomaly: 096.8775 deg Mean motion: 14.25191500 rev/day Decay rate: 1.31e-06 rev/day^2 Epoch rev: 77337 Checksum: 322
Satellite: RESURS Catalog number: 25394 Epoch time: 13087.45015606 Element set: 337 Inclination: 098.3549 deg RA of node: 067.1918 deg Eccentricity: 0.0002540 Arg of perigee: 115.5289 deg Mean anomaly: 030.7333 deg Mean motion: 14.24323770 rev/day Decay rate: 1.8e-07 rev/day^2 Epoch rev: 76486 Checksum: 296
Satellite: FENGYUN1 Catalog number: 25730 Epoch time: 13087.46655619 Element set: 837 Inclination: 098.8727 deg RA of node: 048.0037 deg Eccentricity: 0.0022351 Arg of perigee: 274.6691 deg Mean anomaly: 233.0794 deg Mean motion: 14.10316105 rev/day Decay rate: 1.245e-05 rev/day^2 Epoch rev: 71466 Checksum: 302
Satellite: OKEAN-0 Catalog number: 25860 Epoch time: 13087.83620523 Element set: 904 Inclination: 097.9817 deg RA of node: 051.4083 deg Eccentricity: 0.0001953 Arg of perigee: 086.2676 deg Mean anomaly: 328.6012 deg Mean motion: 14.74516693 rev/day Decay rate: 4.16e-06 rev/day^2 Epoch rev: 73651 Checksum: 308
Satellite: NOAA-16 Catalog number: 26536 Epoch time: 13087.69386366 Element set: 149 Inclination: 099.0516 deg RA of node: 139.6279 deg Eccentricity: 0.0010247 Arg of perigee: 008.3315 deg Mean anomaly: 137.9854 deg Mean motion: 14.12853186 rev/day Decay rate: 1.17e-06 rev/day^2 Epoch rev: 64520 Checksum: 322
Satellite: NOAA-17 Catalog number: 27453 Epoch time: 13087.73067759 Element set: 73 Inclination: 098.3166 deg RA of node: 106.0660 deg Eccentricity: 0.0012246 Arg of perigee: 047.4532 deg Mean anomaly: 079.5245 deg Mean motion: 14.24546829 rev/day Decay rate: 1.09e-06 rev/day^2 Epoch rev: 55926 Checksum: 318
Satellite: NOAA-18 Catalog number: 28654 Epoch time: 13087.70860079 Element set: 556 Inclination: 099.0918 deg RA of node: 054.8054 deg Eccentricity: 0.0015327 Arg of perigee: 076.7277 deg Mean anomaly: 338.5667 deg Mean motion: 14.11789155 rev/day Decay rate: 8.4e-07 rev/day^2 Epoch rev: 40470 Checksum: 340
Satellite: NOAA-19 Catalog number: 33591 Epoch time: 13087.70775693 Element set: 744 Inclination: 098.8977 deg RA of node: 030.4339 deg Eccentricity: 0.0013092 Arg of perigee: 299.2957 deg Mean anomaly: 106.7190 deg Mean motion: 14.11476899 rev/day Decay rate: 7.1e-07 rev/day^2 Epoch rev: 21314 Checksum: 341
/EX SB KEPS @ AMSAT $ORB13087.M Orbital Elements 13087.MISC
HR AMSAT ORBITAL ELEMENTS FOR MANNED AND MISCELLANEOUS SATELLITES FROM WA5QGD FORT WORTH,TX March 28, 2013 BID: ORB13087.M TO ALL RADIO AMATEURS BT
Satellite: HUBBLE Catalog number: 20580 Epoch time: 13087.14996437 Element set: 204 Inclination: 028.4704 deg RA of node: 083.9818 deg Eccentricity: 0.0003069 Arg of perigee: 204.4496 deg Mean anomaly: 244.7647 deg Mean motion: 15.03400171 rev/day Decay rate: 1.496e-05 rev/day^2 Epoch rev: 5748 Checksum: 300
Satellite: ISS Catalog number: 25544 Epoch time: 13087.90894676 Element set: 501 Inclination: 051.6470 deg RA of node: 146.8552 deg Eccentricity: 0.0012293 Arg of perigee: 082.1190 deg Mean anomaly: 252.1663 deg Mean motion: 15.52229952 rev/day Decay rate: 7.065e-05 rev/day^2 Epoch rev: 82223 Checksum: 296
Satellite: CO-58 Catalog number: 28895 Epoch time: 13086.66021514 Element set: 437 Inclination: 097.8804 deg RA of node: 305.9249 deg Eccentricity: 0.0016956 Arg of perigee: 343.0346 deg Mean anomaly: 048.9464 deg Mean motion: 14.61009005 rev/day Decay rate: 4.74e-06 rev/day^2 Epoch rev: 39504 Checksum: 327
Satellite: FALCON Catalog number: 30776 Epoch time: 13087.10532756 Element set: 579 Inclination: 035.4318 deg RA of node: 339.5860 deg Eccentricity: 0.0002412 Arg of perigee: 303.5679 deg Mean anomaly: 172.1944 deg Mean motion: 15.09882227 rev/day Decay rate: 4.021e-05 rev/day^2 Epoch rev: 33315 Checksum: 294
Satellite: MAST Catalog number: 31126 Epoch time: 13086.63727198 Element set: 714 Inclination: 097.8796 deg RA of node: 087.2290 deg Eccentricity: 0.0091927 Arg of perigee: 307.3873 deg Mean anomaly: 162.7016 deg Mean motion: 14.54481747 rev/day Decay rate: 4.24e-06 rev/day^2 Epoch rev: 31546 Checksum: 325
Satellite: CAPE1 Catalog number: 31130 Epoch time: 13087.43039144 Element set: 725 Inclination: 097.8955 deg RA of node: 084.3022 deg Eccentricity: 0.0099620 Arg of perigee: 320.1739 deg Mean anomaly: 039.2176 deg Mean motion: 14.53367929 rev/day Decay rate: 6.36e-06 rev/day^2 Epoch rev: 31504 Checksum: 297
Satellite: COMPASS Catalog number: 32787 Epoch time: 13087.85792941 Element set: 580 Inclination: 097.7609 deg RA of node: 148.4906 deg Eccentricity: 0.0014781 Arg of perigee: 201.7533 deg Mean anomaly: 272.4674 deg Mean motion: 14.85127445 rev/day Decay rate: 1.491e-05 rev/day^2 Epoch rev: 26604 Checksum: 330
Satellite: AAUSAT2 Catalog number: 32788 Epoch time: 13087.13820969 Element set: 567 Inclination: 097.7614 deg RA of node: 148.3548 deg Eccentricity: 0.0014326 Arg of perigee: 203.9284 deg Mean anomaly: 208.4517 deg Mean motion: 14.85552804 rev/day Decay rate: 1.801e-05 rev/day^2 Epoch rev: 26597 Checksum: 332
Satellite: DO-64 Catalog number: 32789 Epoch time: 13087.22297019 Element set: 594 Inclination: 097.7758 deg RA of node: 151.7539 deg Eccentricity: 0.0014110 Arg of perigee: 198.0059 deg Mean anomaly: 194.5826 deg Mean motion: 14.87860763 rev/day Decay rate: 3.037e-05 rev/day^2 Epoch rev: 26608 Checksum: 350
Satellite: CO-66 Catalog number: 32791 Epoch time: 13087.71582861 Element set: 564 Inclination: 097.7610 deg RA of node: 147.8147 deg Eccentricity: 0.0015189 Arg of perigee: 203.4116 deg Mean anomaly: 303.2638 deg Mean motion: 14.84337005 rev/day Decay rate: 1.278e-05 rev/day^2 Epoch rev: 26593 Checksum: 321
Satellite: RS-30 Catalog number: 32953 Epoch time: 13087.57310257 Element set: 717 Inclination: 082.4990 deg RA of node: 118.3267 deg Eccentricity: 0.0019969 Arg of perigee: 051.5030 deg Mean anomaly: 308.7837 deg Mean motion: 12.43032374 rev/day Decay rate: 1.0e-07 rev/day^2 Epoch rev: 21989 Checksum: 303
Satellite: METEOR-M Catalog number: 35865 Epoch time: 13087.72372075 Element set: 318 Inclination: 098.6125 deg RA of node: 142.0886 deg Eccentricity: 0.0002096 Arg of perigee: 330.2766 deg Mean anomaly: 029.8285 deg Mean motion: 14.21881864 rev/day Decay rate: -1.5e-07 rev/day^2 Epoch rev: 18303 Checksum: 305
Satellite: RS-38 Catalog number: 35869 Epoch time: 13087.77059994 Element set: 294 Inclination: 098.6063 deg RA of node: 142.0706 deg Eccentricity: 0.0004251 Arg of perigee: 318.4751 deg Mean anomaly: 041.6103 deg Mean motion: 14.22117960 rev/day Decay rate: 1.0e-07 rev/day^2 Epoch rev: 18306 Checksum: 297
Satellite: JUGNU Catalog number: 37839 Epoch time: 13086.41602406 Element set: 355 Inclination: 019.9619 deg RA of node: 082.2387 deg Eccentricity: 0.0019252 Arg of perigee: 102.0554 deg Mean anomaly: 026.9174 deg Mean motion: 14.12135070 rev/day Decay rate: 3.88e-06 rev/day^2 Epoch rev: 7532 Checksum: 283
Satellite: SRMSAT Catalog number: 37841 Epoch time: 13086.43171116 Element set: 357 Inclination: 019.9722 deg RA of node: 092.5824 deg Eccentricity: 0.0012151 Arg of perigee: 059.0877 deg Mean anomaly: 065.2871 deg Mean motion: 14.10208926 rev/day Decay rate: 3.65e-06 rev/day^2 Epoch rev: 7521 Checksum: 286
Satellite: RAX-2 Catalog number: 37853 Epoch time: 13087.49121953 Element set: 459 Inclination: 101.7160 deg RA of node: 263.7829 deg Eccentricity: 0.0238381 Arg of perigee: 258.6051 deg Mean anomaly: 170.5536 deg Mean motion: 14.82609181 rev/day Decay rate: 5.296e-05 rev/day^2 Epoch rev: 7648 Checksum: 327
Satellite: AUBIESAT Catalog number: 37854 Epoch time: 13087.48434751 Element set: 457 Inclination: 101.7196 deg RA of node: 264.4786 deg Eccentricity: 0.0238619 Arg of perigee: 257.4524 deg Mean anomaly: 167.9083 deg Mean motion: 14.83226544 rev/day Decay rate: 5.209e-05 rev/day^2 Epoch rev: 7649 Checksum: 341
